Weather observations for the past three days for
Angel Fire Airport
Imperial (Metric)
Date Time (mdt) Wind (mph) Vis. (mi.) Weather Sky Cond. Temperature (ºF) Relative Humidity Wind Chill (°F) Heat Index (°F) Pressure Precipitation (in)
Air Dwpt 6 hour altimeter (in) sea level (mb) 1 hr 3 hr 6 hr
Max. Min.
12 21:15 Calm 10.00 Fair CLR 52.3 44.4 75% 30.48 0.0
12 20:55 Calm 10.00 Fair CLR 55.6 46.2 71% 30.47 0.0
12 20:35 Calm 10.00 Fair CLR 58.6 43.9 58% 30.47 0.0
12 20:15 W 3 10.00 Fair CLR 60.3 47.8 64% 30.46 0.0
12 19:55 SE 3 10.00 Fair CLR 63 50.4 64% 30.46 0.0
12 19:35 Calm 10.00 Fair CLR 63.3 51.1 65% 30.45 0.0
12 19:15 Calm 10.00 Fair CLR 68.4 49.6 51% 30.45 0.0
12 18:55 Calm 10.00 Fair CLR 70.2 50.4 50% 30.45 0.0
12 18:35 Calm 10.00 Fair CLR 73.4 41.2 31% 30.46 0.0
12 18:15 NE 5 10.00 Fair CLR 74.5 40.6 30% 30.45 0.0
12 17:55 N 7 10.00 Fair CLR 75.2 40.5 77.2 54.9 29% 77 30.44 0.0 0.04
12 17:35 N 5 10.00 Fair CLR 75.6 37.2 25% 77 30.44 0.0
12 17:15 W 3 10.00 Fair CLR 75.6 37.8 26% 77 30.44 0.0
12 16:55 S 6 10.00 Fair CLR 73.9 37.8 27% 30.45 0.0
12 16:35 SE 12 10.00 Partly Cloudy SCT110 68 38.3 34% 30.48 0.0
12 16:15 SE 7 G 12 10.00 Mostly Cloudy SCT075 SCT090 BKN120 67.1 38.3 35% 30.51 0.0
12 15:55 N 32 G 41 10.00 Overcast and Windy SCT100 OVC120 65.7 40.3 40% 30.51 0.0
12 15:35 N 15 G 21 10.00 Overcast OVC120 65.8 46.8 50% 30.53 0.0
12 15:15 NE 5 10.00 Mostly Cloudy BKN120 66.6 46.2 48% 30.51 0.0
12 14:55 E 5 10.00 Fair CLR 64.9 46.6 52% 30.5 0.0 0.01 0.04
12 14:35 NW 7 10.00 Partly Cloudy SCT070 SCT120 60.6 47.1 61% 30.5 0.0 0.01
12 14:15 SW 13 10.00 Light Rain SCT030 BKN080 OVC120 55.8 47.1 73% 30.51 0.0 0.01
12 13:55 NW 7 G 28 10.00 Rain SCT045 BKN060 OVC080 59.5 41.2 51% 30.58 0.0 0.03
12 13:35 NW 25 G 40 10.00 Light Drizzle and Breezy SCT008 BKN090 OVC110 59.9 42.1 52% 30.55 0.0 0.03
12 13:15 NW 22 G 30 7.00 Rain and Breezy SCT060 BKN090 OVC110 59.9 43.5 55% 30.54 0.0 0.03
12 12:55 N 16 G 22 10.00 Light Rain SCT070 OVC100 67.1 41.5 40% 30.51 0.0
12 12:35 W 12 10.00 Partly Cloudy SCT110 69.6 40.5 35% 30.48 0.0
12 12:15 NW 14 G 18 10.00 Fair CLR 74.1 41.9 31% 30.47 0.0
12 11:55 W 7 G 16 10.00 Fair CLR 76.1 41.7 76.1 35.1 29% 77 30.47 0.0
12 11:35 W 8 10.00 Fair CLR 75.2 43.3 32% 77 30.48 0.0
12 11:15 W 10 10.00 Fair CLR 74.5 43.3 33% 30.5 0.0
12 10:55 W 10 10.00 Fair CLR 73.6 43 33% 30.5 0.0
12 10:35 W 13 G 16 10.00 Fair CLR 73 42.8 34% 30.5 0.0
12 10:15 Calm 10.00 Fair CLR 71.6 44.4 38% 30.5 0.0
12 09:55 Calm 10.00 Fair CLR 69.8 41.9 36% 30.51 0.0
12 09:35 E 5 10.00 Fair CLR 65.7 48.4 54% 30.51 0.0
12 09:15 N 3 10.00 Fair CLR 60.4 46.2 60% 30.51 0.0
12 08:55 N 3 10.00 Fair CLR 58.1 45.1 62% 30.52 0.0
12 08:35 NE 5 10.00 Fair CLR 55.4 44.6 67% 30.52 0.0
12 08:15 NE 6 10.00 Fair CLR 53.6 44.2 71% 30.52 0.0
12 07:55 Calm 10.00 Fair CLR 50.5 42.8 75% 30.52 0.0
12 07:35 Calm 10.00 Fair CLR 47.3 41.4 80% 30.52 0.0
12 07:15 Calm 10.00 Fair CLR 44.6 40.6 86% 30.53 0.0
12 06:55 Calm 10.00 Fair CLR 41.9 39.2 90% 30.52 0.0
12 06:35 Calm 10.00 Fair CLR 39.2 36.7 91% 30.51 0.0
12 06:15 Calm 10.00 Fair CLR 35.6 33.6 93% 30.51 0.0
12 05:55 Calm 10.00 Fair CLR 34.5 32.7 46.8 34.5 93% 30.5 0.0
12 05:35 S 5 10.00 Fair CLR 36.5 34.2 91% 33 30.5 0.0
12 05:15 Calm 10.00 Fair CLR 38.3 35.2 89% 30.5 0.0
12 04:55 Calm 10.00 Fair CLR 36.3 34.2 92% 30.49 0.0
12 04:35 Calm 10.00 Fair CLR 36.9 33.6 88% 30.49 0.0
12 04:15 Calm 10.00 Fair CLR 37.8 35.2 91% 30.49 0.0
12 03:55 Calm 10.00 Fair CLR 37 34.2 89% 30.49 0.0
12 03:35 Calm 10.00 Fair CLR 39.6 36.7 89% 30.49 0.0
12 03:15 Calm 10.00 Fair CLR 40.6 37.9 90% 30.49 0.0
12 02:55 Calm 10.00 Fair CLR 40.3 36.7 87% 30.49 0.0
12 02:35 Calm 10.00 Fair CLR 37.8 35.6 92% 30.49 0.0
12 02:15 Calm 10.00 Fair CLR 41.7 37.8 86% 30.48 0.0
12 01:55 Calm 10.00 Fair CLR 41.7 37.8 86% 30.49 0.0
12 01:35 Calm 10.00 Fair CLR 40.1 37.2 89% 30.5 0.0
12 01:15 Calm 10.00 Fair CLR 43.7 39 84% 30.5 0.0
12 00:55 Calm 10.00 Fair CLR 42.1 38.3 87% 30.49 0.0
12 00:35 Calm 10.00 Fair CLR 43.5 38.7 83% 30.5 0.0
12 00:15 Calm 10.00 Fair CLR 46.8 40.1 78% 30.5 0.0
11 23:55 Calm 10.00 Fair CLR 44.2 39.4 72.9 44.1 83% 30.5 0.0
11 23:35 Calm 10.00 Fair CLR 46.6 40.6 80% 30.5 0.0
11 23:15 Calm 10.00 Fair CLR 48 40.8 76% 30.5 0.0
11 22:55 Calm 10.00 Fair CLR 48.2 40.6 75% 30.5 0.0
11 22:35 Calm 10.00 Fair CLR 48 41.2 77% 30.49 0.0
11 22:15 Calm 10.00 Fair CLR 49.1 41.9 76% 30.48 0.0
11 21:55 SW 3 10.00 Fair CLR 50.5 41.9 72% 30.48 0.0
11 21:35 SE 6 10.00 Fair CLR 52 43.7 74% 30.47 0.0
11 21:15 N 3 10.00 Fair CLR 54.7 43.5 66% 30.47 0.0
11 20:55 Calm 10.00 Partly Cloudy SCT120 55.9 44.2 65% 30.46 0.0
11 20:35 Calm 10.00 Mostly Cloudy BKN120 57.4 45.5 65% 30.46 0.0
11 20:15 Calm 10.00 Partly Cloudy SCT120 61.9 43.5 51% 30.45 0.0
11 19:55 W 3 10.00 Fair CLR 60.1 44.8 57% 30.44 0.0
11 19:35 S 5 10.00 Fair CLR 64.9 41.9 43% 30.44 0.0
11 19:15 SW 7 10.00 Fair CLR 66.9 41.4 39% 30.44 0.0
11 18:55 S 8 10.00 Fair CLR 70.2 38.7 32% 30.43 0.0
11 18:35 S 9 10.00 Fair CLR 72.5 38.3 29% 30.43 0.0
11 18:15 S 13 G 16 10.00 Fair CLR 72.7 36.1 26% 30.43 0.0
11 17:55 S 12 10.00 Fair CLR 72.5 38.1 75.4 68.2 29% 30.42 0.0
11 17:35 S 10 10.00 Fair CLR 72.3 37.6 28% 30.43 0.0
11 17:15 E 7 10.00 Partly Cloudy SCT120 71.1 37 29% 30.44 0.0
11 16:55 S 12 10.00 Partly Cloudy SCT120 71.1 39.2 31% 30.44 0.0
11 16:35 Calm 10.00 Fair CLR 71.1 36.3 28% 30.44 0.0
11 16:15 S 9 10.00 Fair CLR 71.6 37.9 29% 30.44 0.0
11 15:55 SE 10 G 20 10.00 Fair CLR 74.3 36 25% 30.44 0.0
11 15:35 E 16 G 22 10.00 Fair CLR 71.4 36.3 28% 30.45 0.0
11 15:15 E 10 G 20 10.00 Fair CLR 71.4 36.3 28% 30.46 0.0
11 14:55 E 10 10.00 Fair CLR 69.8 35.2 28% 30.47 0.0
11 14:35 NE 8 G 17 10.00 Fair CLR 70.5 34 26% 30.46 0.0
11 14:15 E 9 10.00 Fair CLR 71.6 39 31% 30.47 0.0
11 13:55 NE 6 10.00 Partly Cloudy SCT095 SCT120 70.9 39 31% 30.46 0.0
11 13:35 NW 7 10.00 Mostly Cloudy BKN100 68.2 44.2 42% 30.46 0.0
11 13:15 NW 14 G 22 10.00 Mostly Cloudy BKN100 71.4 37.8 29% 30.46 0.0
11 12:55 W 12 10.00 Mostly Cloudy SCT095 BKN120 73 38.5 29% 30.46 0.0
11 12:35 SW 7 10.00 Fair CLR 75 36 24% 76 30.46 0.0
11 12:15 W 8 10.00 Fair CLR 74.5 38.8 28% 30.47 0.0
11 11:55 SW 6 10.00 Fair CLR 74.1 36.1 74.3 35.4 25% 30.47 0.0
11 11:35 S 9 10.00 Fair CLR 73.4 37.8 27% 30.48 0.0
11 11:15 SW 7 10.00 Fair CLR 72.7 37.2 28% 30.48 0.0
11 10:55 W 7 G 16 10.00 Fair CLR 71.6 38.3 30% 30.48 0.0
11 10:35 Calm 10.00 Fair CLR 70.3 40.3 34% 30.48 0.0
11 10:15 Calm 10.00 Fair CLR 68.5 44.2 42% 30.5 0.0
11 09:55 Calm 10.00 Fair CLR 65.1 47.3 53% 30.5 0.0
11 09:35 Calm 10.00 Fair CLR 60.8 45.5 57% 30.5 0.0
11 09:15 Calm 10.00 Fair CLR 58.6 42.1 54% 30.51 0.0
11 08:55 Calm 10.00 Fair CLR 55.9 42.8 62% 30.51 0.0
11 08:35 Calm 10.00 Fair CLR 52.3 43 71% 30.51 0.0
11 08:15 Calm 10.00 Fair CLR 50.9 43.9 77% 30.51 0.0
11 07:55 Calm 10.00 Fair CLR 48.4 42.6 81% 30.52 0.0
11 07:35 Calm 10.00 Fair CLR 46.2 41.7 84% 30.52 0.0
11 07:15 Calm 10.00 Fair CLR 42.8 40.6 92% 30.52 0.0
11 06:55 Calm 10.00 Fair CLR 41 39 93% 30.51 0.0
11 06:35 Calm 10.00 Fair CLR 37.8 36.3 95% 30.51 0.0
11 06:15 SW 3 10.00 Fair CLR 35.4 33.6 93% 30.51 0.0
11 05:55 Calm 10.00 Fair CLR 37.8 36 46.9 36.1 93% 30.51 0.0
11 05:35 Calm 10.00 Fair CLR 36.1 34.5 94% 30.51 0.0
11 05:15 Calm 10.00 Fair CLR 37.8 36 93% 30.5 0.0
11 04:55 S 3 10.00 Fair CLR 36.3 34.2 92% 30.51 0.0
11 04:35 Calm 10.00 Fair CLR 38.3 36.5 93% 30.5 0.0
11 04:15 Calm 10.00 Fair CLR 37.6 35.8 93% 30.5 0.0
11 03:55 S 3 10.00 Fair CLR 39.6 37.4 92% 30.5 0.0
11 03:35 Calm 10.00 Fair CLR 39.4 37.4 93% 30.5 0.0
11 03:15 Calm 10.00 Fair CLR 38.1 36 92% 30.5 0.0
11 02:55 Calm 10.00 Fair CLR 40.1 37 89% 30.5 0.0
11 02:35 Calm 10.00 Fair CLR 41.4 39 91% 30.5 0.0
11 02:15 Calm 10.00 Fair CLR 41.4 39.4 93% 30.5 0.0
11 01:55 Calm 10.00 Fair CLR 42.3 39 88% 30.5 0.0
11 01:35 Calm 10.00 Fair CLR 43.3 40.3 89% 30.51 0.0
11 01:15 SE 5 10.00 Fair CLR 42.1 39.6 91% 40 30.51 0.0
11 00:55 Calm 10.00 Partly Cloudy SCT110 41.2 38.8 91% 30.51 0.0
11 00:35 Calm 10.00 Fair CLR 45 41.9 89% 30.52 0.0
11 00:15 Calm 10.00 Fair CLR 43.2 40.3 90% 30.52 0.0
10 23:55 Calm 10.00 Fair CLR 46.9 43 73.4 46.8 86% 30.52 0.0
10 23:35 Calm 10.00 Fair CLR 47.8 43 83% 30.52 0.0
10 23:15 Calm 10.00 Fair CLR 47.3 43 85% 30.53 0.0
10 22:55 Calm 10.00 Fair CLR 49.3 44.8 85% 30.53 0.0
10 22:35 Calm 10.00 Fair CLR 48.2 43.5 84% 30.52 0.0
10 22:15 Calm 10.00 Fair CLR 51.8 44.4 76% 30.51 0.0
10 21:55 Calm 10.00 Fair CLR 53.8 43.7 69% 30.5 0.0
10 21:35 NW 6 10.00 Fair CLR 53.2 43.5 70% 30.49 0.0
10 21:15 Calm 10.00 Fair CLR 55.4 42.3 61% 30.49 0.0
10 20:55 W 8 10.00 Partly Cloudy SCT120 55 41.9 61% 30.49 0.0
10 20:35 W 6 10.00 Mostly Cloudy BKN120 55.4 43 63% 30.49 0.0
10 20:15 SE 6 10.00 Light Drizzle SCT033 SCT065 OVC110 57.4 45 63% 30.5 0.0
10 19:55 NE 6 10.00 Light Rain BKN070 OVC090 60.8 41.5 49% 30.52 0.0
10 19:35 NW 12 10.00 Light Rain BKN080 OVC090 62.6 39.9 43% 30.51 0.0
10 19:15 NW 18 G 24 10.00 Overcast BKN080 OVC110 64.6 40.8 42% 30.49 0.0
10 18:55 NE 7 10.00 Partly Cloudy SCT110 67.5 44.1 43% 30.46 0.0
10 18:35 E 7 10.00 Fair CLR 69.6 39.4 33% 30.42 0.0
10 18:15 SE 8 10.00 Fair CLR 73 39.9 30% 30.42 0.0
10 17:55 Calm 10.00 Fair CLR 72.5 37.6 73.9 60.3 28% 30.42 0.0 0.04
10 17:35 SW 7 10.00 Fair CLR 72.1 43.2 35% 30.43 0.0
10 17:15 Calm 10.00 Fair CLR 70.3 42.4 37% 30.44 0.0
10 16:55 SW 10 10.00 Partly Cloudy SCT032 SCT050 SCT070 69.1 46 44% 30.44 0.0
10 16:35 S 8 10.00 Mostly Cloudy SCT050 BKN090 BKN110 66.2 48 52% 30.45 0.0
10 16:15 SW 5 10.00 Partly Cloudy SCT100 66.4 45.5 47% 30.46 0.0
10 15:55 S 9 10.00 Partly Cloudy SCT031 SCT050 SCT065 65.8 49.6 56% 30.47 0.0 0.02
10 15:35 S 9 10.00 Overcast SCT050 SCT065 OVC095 61 50.7 69% 30.47 0.0 0.02
10 15:15 Calm 10.00 Light Rain OVC095 61.9 48.2 61% 30.48 0.0 0.01
10 14:55 SW 5 10.00 Overcast SCT026 SCT048 OVC095 62.6 50.7 65% 30.47 0.0 0.02
10 14:35 SE 10 10.00 Light Rain SCT028 SCT048 OVC085 62.6 48.9 61% 30.46 0.0
10 14:15 SE 13 10.00 Light Rain SCT025 SCT055 OVC095 62.6 48.4 60% 30.47 0.0
10 13:55 NE 8 7.00 Rain BKN080 OVC110 64.9 50.2 59% 30.46 0.0 0.02
10 13:35 W 7 10.00 Mostly Cloudy BKN080 BKN120 69.6 40.1 34% 30.46 0.0
10 13:15 Calm 10.00 Partly Cloudy SCT090 SCT120 72.9 37.2 27% 30.46 0.0
10 12:55 SE 5 10.00 Mostly Cloudy SCT090 BKN120 73.6 36.1 26% 30.46 0.0
10 12:35 E 5 10.00 Partly Cloudy SCT090 SCT110 72.1 36.1 27% 30.47 0.0
10 12:15 Calm 10.00 Mostly Cloudy SCT090 BKN110 70.7 34.2 26% 30.47 0.0
10 11:55 NE 3 10.00 Partly Cloudy SCT095 SCT110 70.5 37 72 36.5 29% 30.47 0.0
10 11:35 NW 10 10.00 Partly Cloudy SCT070 SCT110 71.8 44.1 37% 30.48 0.0
10 11:15 W 9 10.00 Mostly Cloudy BKN120 71.4 41.7 34% 30.48 0.0
10 10:55 Calm 10.00 Partly Cloudy SCT120 69.8 40.6 35% 30.48 0.0
10 10:35 NE 3 10.00 Fair CLR 68.9 41.9 38% 30.48 0.0
10 10:15 W 3 10.00 Fair CLR 66.4 40.8 39% 30.48 0.0
10 09:55 Calm 10.00 Fair CLR 64.9 42.8 45% 30.49 0.0
10 09:35 Calm 10.00 Fair CLR 61.9 42.1 48% 30.49 0.0
10 09:15 Calm 10.00 Fair CLR 59.5 43.9 56% 30.49 0.0
10 08:55 Calm 10.00 Fair CLR 57.4 44.2 62% 30.49 0.0
10 08:35 Calm 10.00 Fair CLR 54.1 43.7 68% 30.5 0.0
10 08:15 Calm 10.00 Fair CLR 51.6 43.2 73% 30.5 0.0
10 07:55 Calm 10.00 Fair CLR 49.3 43.2 80% 30.5 0.0
10 07:35 Calm 10.00 Fair CLR 46.6 42.1 84% 30.5 0.0
10 07:15 Calm 10.00 Fair CLR 44.4 41.9 91% 30.51 0.0
10 06:55 Calm 10.00 Fair CLR 42.1 40.1 93% 30.5 0.0
10 06:35 Calm 10.00 Fair CLR 39 37.2 93% 30.5 0.0
10 06:15 Calm 10.00 Fair CLR 40.1 37.8 91% 30.49 0.0
10 05:55 Calm 10.00 Fair CLR 38.5 36.3 54.1 37.4 92% 30.49 0.0
10 05:35 Calm 10.00 Fair CLR 37.6 35.8 93% 30.48 0.0
10 05:15 SE 5 10.00 Fair CLR 40.1 37.9 92% 37 30.48 0.0
10 04:55 Calm 10.00 Fair CLR 39 37.4 94% 30.49 0.0
10 04:35 Calm 10.00 Fair CLR 39.6 37 91% 30.48 0.0
10 04:15 Calm 10.00 Fair CLR 40.5 38.7 93% 30.48 0.0
10 03:55 Calm 10.00 Fair CLR 41.5 39.4 92% 30.47 0.0
10 03:35 Calm 10.00 Fair CLR 40.1 37.2 89% 30.47 0.0
10 03:15 Calm 10.00 Fair CLR 42.3 40.1 92% 30.47 0.0
10 02:55 Calm 10.00 Fair CLR 44.8 41.5 88% 30.47 0.0
10 02:35 Calm 10.00 Fair CLR 45 42.3 90% 30.47 0.0
10 02:15 Calm 10.00 Fair CLR 47.5 43.2 85% 30.47 0.0
10 01:55 Calm 10.00 Fair CLR 48.2 43.7 85% 30.47 0.0
10 01:35 Calm 10.00 Fair CLR 48.4 44.4 86% 30.47 0.0
10 01:15 W 3 10.00 Fair CLR 48.2 43.9 85% 30.48 0.0
10 00:55 Calm 10.00 Fair CLR 53.1 45 74% 30.47 0.0
10 00:35 Calm 10.00 Partly Cloudy SCT110 53.6 45.9 75% 30.48 0.0
10 00:15 Calm 10.00 Mostly Cloudy BKN120 53.8 46.4 76% 30.47 0.0
09 23:55 N 5 10.00 Mostly Cloudy BKN110 54.1 45.9 69.3 54.1 74% 30.47 0.0
09 23:35 E 6 10.00 Mostly Cloudy BKN100 BKN120 55.6 46 70% 30.48 0.0
09 23:15 N 6 10.00 Overcast SCT075 OVC090 56.7 46.2 68% 30.49 0.0
09 22:55 Calm 10.00 Overcast SCT075 BKN090 OVC100 56.3 47.7 73% 30.49 0.0
09 22:35 Calm 10.00 Mostly Cloudy BKN100 55.4 48.2 77% 30.47 0.0
09 22:15 Calm 10.00 Fair CLR 54.9 48.2 78% 30.48 0.0
09 21:55 Calm 10.00 Partly Cloudy SCT120 56.1 48 74% 30.48 0.0
09 21:35 NE 6 10.00 Mostly Cloudy SCT075 BKN100 BKN120 58.3 46.6 65% 30.48 0.0
Date Time (mdt) Wind (mph) Vis. (mi.) Weather Sky Cond. Air Dwpt Max. Min. Relative Humidity Wind Chill (°F) Heat Index (°F) altimeter (in) sea level (mb) 1 hr 3 hr 6 hr
6 hour
Temperature (ºF) Pressure Precipitation (in)